Wind_Speed
5 5 4 4 3 3 3 3 3 4 4 5 6 7 8 8 8 8 9 9 8 8 8 9 9 9 10 10 11 11 11 12 12 12 13 13 14 14 14 13 13 12 12
6 5 4 4 3 3 3 3 3 3 4 4 5 6 7 8 8 7 8 9 8 8 8 9 9 8 8 10 10 10 10 11 12 12 13 13 14 15 16 15 13 13 12
6 5 4 4 3 3 3 3 3 3 3 2 3 4 5 6 7 7 7 7 7 7 8 7 7 7 8 10 11 10 10 11 11 11 12 12 12 13 14 14 13 13 13
5 5 5 4 4 4 4 3 3 3 2 2 2 2 3 5 5 6 6 6 6 6 7 7 8 8 7 8 9 10 10 10 9 9 10 10 10 11 12 13 13 13 13
5 5 5 4 4 4 4 3 3 2 2 2 1 1 2 3 3 4 5 5 5 5 6 7 7 8 7 7 8 9 10 9 10 10 9 9 9 9 10 12 12 13 13
5 5 5 4 4 3 4 4 3 3 2 2 2 2 2 3 3 3 4 4 5 6 6 6 6 7 7 8 8 8 9 10 9 10 9 9 9 9 9 11 12 12 12
5 5 4 4 4 4 3 3 3 3 3 3 2 2 2 3 3 3 4 5 5 5 5 6 6 6 7 8 7 8 8 9 9 8 9 9 9 9 9 10 11 12 12
5 5 4 4 4 4 3 3 3 3 3 3 3 2 3 3 3 3 4 5 5 5 5 6 6 7 7 8 8 8 8 9 9 9 8 8 8 8 9 10 11 12 12
4 5 5 4 4 4 3 3 3 3 3 3 2 3 3 2 2 2 3 3 4 5 5 6 6 6 7 7 7 7 7 8 9 8 8 9 9 9 10 11 12 12 13
4 4 5 4 4 4 3 3 3 3 3 3 3 3 3 3 3 3 3 4 4 5 6 6 6 6 7 7 7 7 8 8 9 9 9 10 10 11 11 11 12 13 14
3 4 4 4 4 4 3 3 3 3 3 4 4 4 4 4 5 5 5 5 5 6 6 7 6 7 7 8 8 9 9 9 10 11 11 11 11 12 13 13 14 15 16
3 4 4 4 4 4 4 4 3 3 4 4 4 5 5 6 6 6 6 6 7 7 7 7 7 8 9 9 10 10 10 10 11 12 12 13 13 14 15 16 17 18 18
3 3 4 4 4 4 3 4 4 4 4 5 5 5 6 6 6 6 7 7 7 8 8 8 9 9 10 10 11 11 11 12 12 13 14 15 16 16 16 17 18 19 20
3 4 4 4 4 4 4 4 4 4 5 5 6 6 6 7 7 7 7 7 8 9 9 9 10 11 11 11 12 12 12 13 14 15 16 17 17 18 19 19 20 21 21
4 4 4 5 5 4 5 5 5 6 6 6 6 7 7 8 8 8 8 8 9 9 10 10 11 12 12 13 13 13 13 14 15 16 17 18 19 20 21 21 22 22 23
5 5 5 6 6 6 6 6 6 7 7 7 7 8 8 9 9 9 9 10 11 11 11 12 13 13 13 14 15 15 16 16 17 18 19 20 21 22 23 24 25 25 26
5 6 6 7 7 8 8 8 8 8 8 9 9 9 9 10 10 10 11 11 12 13 13 13 13 14 15 16 17 17 18 19 19 20 21 22 23 24 25 25 26 27 28
6 7 7 8 8 9 9 9 9 9 10 10 10 10 11 11 12 12 13 13 14 14 15 15 15 16 17 17 18 19 20 21 22 22 23 23 24 25 26 27 27 28 29
7 8 8 8 9 9 9 10 10 10 11 11 12 12 13 14 14 15 15 16 16 16 17 17 18 18 18 19 19 20 21 22 23 23 24 25 26 26 27 28 29 29 30
9 9 9 9 10 10 11 11 11 12 12 13 13 14 14 15 15 16 16 17 18 19 19 20 20 21 20 21 22 23 24 24 24 25 25 26 27 27 29 29 29 30 30
10 10 10 10 10 11 12 13 13 13 14 14 14 14 15 15 16 16 17 18 19 20 21 21 22 22 22 23 24 24 25 25 26 26 27 28 28 28 29 29 30 30 31
11 11 11 12 13 13 14 14 14 15 15 15 16 16 16 16 17 18 18 19 20 21 22 23 23 24 24 24 25 25 26 26 27 28 28 28 29 30 30 31 32 32 33
12 12 12 12 13 14 15 15 15 16 16 17 17 17 18 19 19 19 20 20 21 22 23 24 24 24 25 25 26 26 27 27 28 28 29 30 31 31 32 33 33 34 35
12 13 14 14 15 15 16 16 17 17 17 18 18 18 19 20 20 21 21 22 23 24 25 25 25 26 26 27 27 28 28 29 30 31 31 31 32 33 33 35 36 37 37
15 15 15 16 16 16 17 17 18 18 19 19 19 20 20 21 22 23 24 25 25 26 26 26 27 28 29 29 29 30 30 30 30 31 33 33 33 34 35 36 37 38 39
16 16 17 17 18 17 18 18 19 19 20 21 21 22 22 23 24 25 26 26 27 27 27 28 28 29 29 30 30 31 31 31 32 32 33 34 35 36 36 38 39 39 39
Wind_Direction
349 344 340 337 333 327 323 322 308 288 280 271 257 251 246 243 236 238 237 239 245 247 248 248 249 250 249 249 249 251 254 256 257 260 261 260 259 258 257 256 257 256 261
353 345 344 342 342 342 338 332 319 302 291 276 267 258 252 248 241 241 243 241 245 248 251 249 245 254 257 253 250 253 257 259 262 262 262 265 265 261 256 254 255 256 258
355 353 348 345 349 350 342 333 325 315 303 286 276 262 258 256 249 246 241 244 248 250 252 250 249 255 262 261 255 256 259 262 265 267 266 267 267 261 253 250 254 257 259
1 7 6 1 0 357 351 342 338 330 320 314 296 276 274 264 259 250 245 250 254 259 257 254 252 257 266 267 261 259 259 261 267 268 267 267 268 265 254 248 256 260 262
357 5 6 360 360 3 4 358 354 347 344 346 334 303 288 278 272 256 253 254 257 265 267 264 258 260 266 270 270 266 263 264 266 264 263 262 265 264 257 253 256 260 263
354 1 4 3 5 9 11 17 17 9 1 353 341 322 315 295 284 270 261 260 265 270 270 269 266 266 270 270 269 273 271 266 264 266 261 259 263 263 260 257 258 260 263
354 358 3 5 9 12 14 16 20 14 3 358 353 336 314 305 285 281 271 268 273 274 270 268 270 275 277 276 274 276 278 271 263 269 267 263 263 265 262 260 261 261 262
353 359 358 360 2 6 9 13 14 9 6 5 1 356 333 317 297 284 270 270 273 274 275 278 281 282 280 279 274 276 280 277 270 269 268 265 263 263 263 263 264 265 266
356 356 359 1 2 3 1 359 357 354 356 355 347 334 338 339 327 307 292 280 278 278 278 279 284 285 282 282 282 281 281 279 276 273 271 268 268 266 263 265 266 268 269
359 360 0 0 0 1 360 357 348 342 338 334 334 332 334 335 331 321 312 302 295 289 284 282 282 284 286 284 284 283 281 279 280 282 279 275 274 273 271 273 271 271 274
352 360 2 5 4 359 357 356 351 349 345 340 331 326 323 323 319 319 311 303 297 293 288 282 281 283 284 284 283 282 281 279 281 284 284 278 277 276 276 275 276 277 279
342 354 354 358 3 3 359 355 349 345 342 336 328 323 320 319 315 309 308 306 301 296 291 288 287 287 284 285 283 283 282 280 281 283 285 283 281 281 281 279 279 280 280
315 335 344 350 354 354 349 349 350 352 345 337 329 323 319 319 315 309 306 305 301 299 297 294 293 291 289 289 288 285 282 280 282 284 286 287 285 285 286 285 285 284 283
300 313 324 333 340 339 332 331 332 333 333 335 332 325 318 314 311 307 306 305 304 302 300 297 295 292 290 290 290 288 288 284 284 286 287 287 288 288 288 287 287 287 285
289 298 303 310 313 317 322 321 318 320 322 323 323 323 323 319 313 309 307 306 305 301 297 297 296 294 292 291 290 288 288 289 290 289 287 286 286 286 288 287 287 288 287
281 290 296 303 307 307 308 308 308 311 313 315 317 318 318 316 314 310 307 304 303 303 299 296 295 294 294 293 292 290 290 291 291 289 288 289 290 290 289 288 287 287 287
280 286 289 296 303 304 299 298 300 300 303 307 310 313 314 313 310 308 306 306 305 304 301 299 297 293 293 293 291 291 292 290 291 291 292 292 294 292 291 291 289 286 285
279 285 288 292 296 299 298 296 297 296 297 300 303 304 306 307 306 305 304 304 304 303 301 298 296 296 295 294 291 290 291 291 292 293 293 293 295 294 292 290 290 288 286
280 285 289 292 294 295 296 297 297 299 299 298 299 301 302 302 302 302 301 301 301 300 299 297 296 296 296 295 293 291 290 292 294 293 294 294 295 295 294 292 290 289 287
277 282 286 291 292 291 293 295 297 300 302 301 300 300 301 303 303 303 302 301 300 298 298 297 297 297 296 296 294 293 292 292 294 295 295 295 295 295 294 293 291 290 289
279 282 285 287 291 291 291 293 294 297 300 301 302 303 302 303 304 305 304 305 303 301 300 299 297 297 297 297 297 296 294 294 296 296 297 297 296 295 295 293 292 291 290
281 284 287 288 289 290 292 292 294 296 298 298 299 302 303 303 302 304 304 306 305 304 303 301 299 298 297 298 298 297 296 295 296 296 297 296 296 296 295 294 293 292 291
279 281 286 289 290 291 292 293 292 294 296 297 298 298 299 300 303 303 305 306 306 305 304 303 300 299 298 299 299 298 297 297 297 296 297 297 297 297 296 295 294 293 292
282 284 285 287 290 290 290 291 293 295 296 297 297 297 298 298 299 301 303 304 305 305 304 303 302 301 299 298 299 299 299 299 297 297 297 297 296 296 297 296 295 294 293
282 284 286 286 287 289 290 292 294 295 297 298 296 297 298 298 299 299 300 301 302 302 303 302 301 300 299 298 298 298 299 300 300 299 299 298 297 297 297 296 296 295 294
282 284 284 285 284 285 288 290 292 295 297 297 297 297 297 297 297 299 300 300 301 301 301 302 301 301 300 299 299 299 299 299 300 300 301 300 299 298 297 297 296 295 295
Height
5870 5869 5868 5867 5867 5867 5866 5866 5866 5866 5866 5866 5867 5867 5868 5869 5870 5872 5873 5874 5875 5876 5876 5877 5878 5879 5880 5881 5882 5883 5883 5884 5884 5885 5885 5885 5885 5885 5886 5887 5888 5890 5890
5869 5868 5868 5867 5867 5866 5866 5866 5865 5865 5865 5866 5866 5867 5867 5868 5869 5871 5872 5873 5874 5874 5875 5876 5877 5878 5878 5879 5880 5881 5881 5882 5882 5882 5882 5881 5880 5879 5881 5884 5885 5887 5888
5869 5868 5868 5867 5866 5866 5866 5865 5865 5865 5865 5865 5866 5866 5866 5867 5868 5870 5871 5871 5872 5873 5874 5875 5876 5876 5877 5877 5878 5878 5879 5879 5879 5879 5878 5877 5875 5874 5875 5880 5882 5884 5885
5869 5868 5868 5867 5866 5866 5866 5865 5865 5865 5865 5865 5865 5866 5866 5867 5868 5869 5870 5870 5871 5872 5873 5873 5874 5875 5875 5876 5876 5876 5876 5877 5877 5877 5876 5875 5874 5872 5874 5877 5880 5881 5882
5870 5869 5868 5868 5867 5866 5866 5865 5865 5865 5865 5865 5865 5866 5866 5867 5867 5868 5869 5870 5870 5871 5871 5872 5873 5873 5874 5874 5875 5875 5875 5875 5875 5875 5875 5875 5874 5874 5874 5876 5878 5879 5880
5870 5869 5868 5868 5867 5867 5866 5866 5865 5865 5865 5865 5865 5865 5866 5866 5867 5867 5868 5869 5869 5870 5870 5871 5872 5872 5873 5873 5873 5873 5873 5873 5873 5873 5873 5873 5873 5874 5874 5875 5876 5876 5877
5870 5869 5869 5868 5868 5867 5867 5866 5866 5865 5865 5865 5865 5866 5866 5866 5866 5867 5867 5868 5868 5869 5870 5870 5871 5871 5871 5871 5871 5871 5871 5872 5871 5872 5872 5872 5872 5872 5872 5873 5873 5874 5874
5870 5870 5869 5868 5868 5867 5867 5866 5866 5866 5865 5865 5866 5866 5866 5866 5866 5866 5866 5867 5867 5868 5868 5869 5869 5870 5870 5870 5870 5870 5870 5870 5869 5870 5870 5870 5870 5870 5870 5871 5871 5871 5871
5870 5870 5869 5869 5868 5868 5867 5867 5866 5866 5866 5866 5866 5866 5866 5866 5866 5866 5866 5866 5866 5867 5867 5868 5868 5868 5868 5868 5868 5868 5868 5868 5868 5868 5868 5868 5868 5868 5868 5868 5868 5868 5868
5870 5870 5869 5869 5868 5868 5867 5867 5866 5866 5866 5866 5865 5865 5866 5865 5866 5866 5866 5866 5866 5866 5866 5866 5867 5867 5867 5867 5866 5866 5866 5866 5866 5865 5865 5865 5865 5865 5865 5865 5865 5865 5865
5871 5870 5870 5869 5869 5868 5868 5867 5867 5866 5866 5866 5865 5865 5865 5865 5865 5865 5865 5865 5865 5865 5865 5865 5865 5865 5865 5865 5864 5864 5864 5864 5864 5863 5863 5863 5862 5862 5862 5862 5862 5861 5861
5871 5870 5870 5869 5869 5868 5868 5867 5867 5866 5866 5866 5865 5865 5865 5865 5864 5864 5864 5864 5864 5864 5863 5863 5863 5863 5863 5862 5862 5862 5861 5861 5861 5860 5860 5859 5859 5859 5858 5858 5858 5857 5856
5870 5870 5870 5869 5869 5868 5868 5868 5867 5867 5866 5866 5865 5865 5864 5864 5864 5864 5863 5863 5862 5862 5862 5861 5861 5861 5860 5860 5859 5859 5858 5858 5858 5857 5856 5856 5855 5855 5854 5854 5853 5852 5852
5870 5870 5870 5869 5869 5868 5868 5868 5867 5867 5866 5866 5865 5864 5864 5863 5863 5862 5862 5862 5861 5861 5860 5859 5859 5858 5858 5857 5856 5856 5855 5854 5854 5853 5853 5852 5851 5850 5849 5849 5848 5847 5846
5869 5869 5869 5869 5869 5868 5868 5867 5867 5867 5866 5865 5865 5864 5863 5862 5861 5861 5860 5860 5860 5859 5858 5857 5856 5856 5855 5854 5853 5852 5852 5851 5850 5849 5848 5847 5846 5845 5844 5843 5842 5841 5840
5868 5868 5868 5868 5868 5867 5867 5867 5866 5866 5865 5864 5864 5863 5862 5861 5860 5859 5858 5858 5857 5857 5856 5855 5854 5853 5851 5850 5850 5849 5848 5847 5846 5845 5843 5842 5840 5839 5838 5836 5835 5834 5833
5866 5867 5867 5867 5866 5866 5866 5865 5865 5864 5864 5863 5863 5862 5861 5860 5859 5858 5857 5856 5855 5854 5853 5852 5850 5849 5848 5847 5846 5845 5844 5843 5841 5839 5837 5836 5834 5832 5830 5829 5828 5826 5825
5865 5865 5865 5865 5865 5864 5864 5864 5863 5863 5862 5862 5861 5860 5859 5858 5857 5855 5854 5853 5852 5851 5850 5848 5847 5846 5844 5843 5842 5840 5839 5837 5835 5833 5831 5829 5827 5825 5823 5822 5820 5818 5817
5863 5863 5863 5863 5863 5862 5862 5862 5861 5860 5860 5859 5859 5858 5856 5855 5854 5853 5851 5850 5849 5847 5846 5845 5843 5841 5840 5838 5837 5835 5834 5832 5830 5827 5825 5823 5821 5818 5816 5814 5812 5811 5809
5861 5862 5861 5861 5861 5860 5860 5859 5859 5858 5857 5857 5856 5855 5853 5852 5851 5849 5848 5846 5845 5843 5842 5840 5839 5837 5835 5833 5832 5830 5828 5826 5824 5821 5819 5816 5814 5811 5809 5807 5805 5803 5801
5859 5859 5859 5859 5858 5858 5857 5857 5856 5855 5854 5853 5852 5851 5850 5848 5847 5845 5844 5842 5840 5839 5837 5835 5834 5832 5830 5828 5826 5824 5822 5819 5817 5815 5812 5810 5807 5804 5801 5799 5797 5795 5793
5856 5856 5856 5856 5855 5855 5854 5853 5853 5852 5851 5850 5849 5847 5846 5845 5843 5841 5840 5838 5836 5834 5832 5830 5828 5826 5824 5821 5819 5817 5815 5813 5810 5808 5805 5802 5800 5797 5794 5791 5788 5786 5784
5853 5853 5853 5852 5852 5851 5850 5850 5849 5848 5847 5846 5844 5843 5842 5840 5839 5837 5835 5833 5831 5828 5827 5824 5822 5820 5817 5815 5813 5810 5807 5805 5802 5800 5797 5794 5792 5789 5786 5782 5779 5777 5774
5850 5849 5849 5849 5848 5847 5846 5846 5845 5843 5842 5841 5840 5838 5837 5835 5834 5832 5830 5828 5825 5823 5820 5818 5816 5813 5810 5808 5805 5803 5800 5797 5794 5791 5789 5786 5783 5780 5777 5773 5770 5767 5764
5846 5845 5845 5845 5844 5843 5842 5841 5840 5839 5838 5836 5835 5833 5832 5830 5828 5826 5824 5822 5819 5817 5814 5811 5809 5806 5803 5800 5797 5795 5792 5789 5787 5783 5780 5777 5774 5771 5768 5764 5760 5757 5753
5842 5841 5840 5840 5839 5838 5838 5837 5835 5834 5833 5831 5830 5828 5826 5824 5822 5820 5818 5815 5813 5810 5807 5804 5801 5798 5795 5792 5789 5787 5784 5781 5778 5775 5771 5768 5764 5761 5758 5754 5749 5745 5742